Regional Weather Roundup
Issued by NWS Upton, NY

Current Version | Previous Version | Text Only | Print | Product List | Glossary On
Versions: 1 2 3 4 5 6 7 8 9 10 11 12 13 14 15 16 17 18 19 20 21 22 23 24 25 26 27 28 29 30 31 32 33 34 35 36 37 38 39 40 41 42 43 44 45 46 47 48 49 50
000
ASUS41 KOKX 042208
RWROKX

REGIONAL WEATHER ROUNDUP
NATIONAL WEATHER SERVICE NEW YORK NY
600 PM EDT MON MAY 04 2015

NOTE: "FAIR" INDICATES FEW OR NO CLOUDS BELOW 12,000 FEET WITH NO
SIGNIFICANT WEATHER AND/OR OBSTRUCTIONS TO VISIBILITY.

NYZ071-072-176-178-NJZ106-104-042300-
NEW YORK CITY METRO AREA


CITY           SKY/WX    TMP DP  RH WIND       PRES   REMARKS
CENTRAL PARK   SUNNY     83  39  21 SW9G20    30.14S
LAGUARDIA APRT MOSUNNY   78  46  32 S14       30.11F
KENNEDY INTL   MOSUNNY   69  47  45 S23G31    30.14F
NEWARK/LIBERTY MOSUNNY   83  41  22 SW18G26   30.11F
BRNX BOT. GARD   N/A     77  45  31 S9        30.12F
TETERBORO      MOSUNNY   84  39  20 SW16      30.09F
$$

NYZ177-179-078>081-042300-
LONG ISLAND NEW YORK

CITY           SKY/WX    TMP DP  RH WIND       PRES   REMARKS
FARMINGDALE    SUNNY     70  46  42 S22G28    30.16F
ISLIP          MOSUNNY   69  44  40 S16       30.16S
SHIRLEY        SUNNY     67  44  43 S15G21    30.18F
WESTHAMPTON    SUNNY     66  43  43 SW13G20   30.19F
MONTAUK POINT    N/A     63  46  54 S14G23    30.18F
$$

NYZ052-065-067-042300-
HUDSON VALLEY

CITY           SKY/WX    TMP DP  RH WIND       PRES   REMARKS
WHITE PLAINS   MOSUNNY   76  43  30 S13G20    30.12F
NEWBURGH       MOSUNNY   82  41  23 SW14G23   30.09F
MONTGOMERY     SUNNY     83  42  23 SW15G24   30.06F
POUGHKEEPSIE   SUNNY     85  37  18 S10G20    30.05F
ALBANY         PTSUNNY   84  37  18 SW13      30.01F
$$

NJZ001-105-106-008-010-013-015-019>022-104-042300-
NEW JERSEY

CITY           SKY/WX    TMP DP  RH WIND       PRES   REMARKS
NEWARK/LIBERTY MOSUNNY   83  41  22 SW18G26   30.11F
TETERBORO      MOSUNNY   84  39  20 SW16      30.09F
CALDWELL       MOSUNNY   83  40  21 SW9G18    30.10F
MORRISTOWN     MOSUNNY   82  39  21 SW14G24   30.11F
SOMERVILLE     SUNNY     83  41  22 VRB7      30.10S
SUSSEX         SUNNY     82  41  23 SW13G21   30.11S
ANDOVER          N/A     81  42  25 SW9G21    30.11S
TRENTON        SUNNY     81  40  23 SW8G22    30.13F
MILLVILLE      SUNNY     81  42  25 SW8       30.19S
ATLANTIC CITY  SUNNY     78  41  26 S20G28    30.19S
WRIGHTSTOWN    SUNNY     82  42  24 SW17      30.12F
TOMS RIVER     SUNNY     79  43  27 S17G26    30.17S
BELMAR         MOSUNNY   81  45  28 S14       30.15S
$$

PAZ047>061-062-071-042300-
EASTERN PENNSYLVANIA

CITY           SKY/WX    TMP DP  RH WIND       PRES   REMARKS
PHILADELPHIA   SUNNY     83  39  21 SW13G26   30.15F
ALLENTOWN      SUNNY     83  44  25 S13       30.11S
SCRANTON       SUNNY     83  38  20 SW16G23   30.09F
$$

CTZ002-004>006-009-010-012-RIZ004-006-007-MAZ004-011-015-042300-
SOUTHERN NEW ENGLAND
 IN CT

CITY           SKY/WX    TMP DP  RH WIND       PRES   REMARKS
BRADLEY INTL   MOSUNNY   81  41  24 S18G31    30.07S
HARTFORD       SUNNY     78  41  26 S14G24    30.09F
DANBURY        SUNNY     77  40  26 SE15G22   30.12F
WTRBRY/OXFORD  MOSUNNY   75  41  29 SW17G26   30.14F
BRIDGEPORT     SUNNY     72  44  36 S21G29    30.12F
MERIDEN        SUNNY     78  41  26 S15G23    30.11F
NEW HAVEN      SUNNY     69  44  40 S14G21    30.13F
CHESTER        FAIR      73  41  31 SW14G23   30.16S
GROTON         SUNNY     64  45  49 SW12      30.15F
WILLIMANTIC    SUNNY     79  39  23 S16G29    30.11F

 IN RI

CITY           SKY/WX    TMP DP  RH WIND       PRES   REMARKS
PROVIDENCE     PTSUNNY   77  41  27 SW17G25   30.13S
BLOCK ISLAND   SUNNY     57  45  62 SW20      30.17F
WESTERLY       SUNNY     65  44  46 SW8       30.17S

 IN MA

CITY           SKY/WX    TMP DP  RH WIND       PRES   REMARKS
BOSTON         MOSUNNY   80  42  25 SW23G33   30.05F
WORCESTER      SUNNY     78  40  25 SW22G28   30.10S
WESTFIELD      MOSUNNY   81  41  24 S21G31    30.05F
PROVINCETOWN   SUNNY     61  45  55 SW20G26   30.14S
NANTUCKET      MOSUNNY   55  50  83 SW12      30.20F
$$

ANZ330-335-338-340-345-350-353-355-042300-
COASTAL MARINE OBSERVATIONS


STATION/POSITION TIME  SKY/WX   TEMP    WIND        PRES    VSBY  WAVE
                                AIR SEA DIR/SP/G                  HT/PER
                 (UTC)          (F)     (DEG/KT/KT) (MB)    (MI)  (FT/S)
NY HARB ENTRANCE 2150            59 53  190/ 17/ 19 1020.4          4/ 8
4S FIRE IS       2103               51                N/A           4/ 9
20S FIRE ISLAND  2150            54 49  180/ 14/ 16 1021.7          3/ 7
GREAT SOUTH BAY  NOT AVBL
23SW MTP         2150            52 46  210/ 14/ 16 1022.0          3/ 8
HUDSON CANYON    NOT AVBL
KINGS POINT      2100            70 51  200/ 19/ 21 1019.7
EASTERN LI SOUND 2100            57     200/ 12/ 14   N/A
ROBBINS REEF     2100            81     220/ 18/ 22 1018.8
$$


>>>>>>>>>>>>>>>>>>>>>>>>>>>> KEY <<<<<<<<<<<<<<<<<<<<<<<<<<<
>                                                          <
>     SKY/WX - SKY CONDITION/PRESENT WEATHER               <
>     TMP    - TEMPERATURE IN FAHRENHEIT                   <
>     DP     - DEWPOINT IN FAHRENHEIT                      <
>     RH     - RELATIVE HUMIDITY IN PERCENT                <
>     WIND   - DIRECTION AND SPEED IN MPH                  <
>     PRES   - MEAN SEA LEVEL PRESSURE IN INCHES OF HG     <
>     WCI    - WIND CHILL INDEX                            <
>     VSB    - VISIBILITY IN MILES                         <
>     HX     - HEAT INDEX                                  <
>     TC     - TEMPERATURE IN CELSIUS                      <
>     VRB    - VARIABLE WIND DIRECTION                     <
>                                                          <
>>>>>>>>>>>>>>>>>>>>>>>>>>>> KEY <<<<<<<<<<<<<<<<<<<<<<<<<<<





USA.gov is the U.S. government's official web portal to all federal, state and local government web resources and services.